Location: Nitra
(0.0000°N, 18.0833°E)
Time: 04:40:47
(UTC+02:00)

Oscar 19 - Pass Details

Date: 18 June 2023
Orbit: 773 x 788 km, 98.9° (Epoch: 25 September)

Event Time Altitude Azimuth Distance (km) Brightness Sun altitude
Rises 04:34:32 0° 14° (NNE) 3,233 14.4 -30.5°
Reaches altitude 10° 04:36:50 10° 15° (NNE) 2,308 13.5 -30.0°
Enters shadow 04:41:22 70° 37° (NE) 819 10.7 -29.0°
